This is the latest recevied weather packets stored in our database for station/object AD8IZ-13. If no packets are shown the sender has not sent any weather packets the latest 10 day(s).
| Time | Temp. | Humidity | Pressure | Rain* | Wind** | Luminosity | Snow |
|---|---|---|---|---|---|---|---|
| 1787375720 | 20.56° C | 91% | 1015.5 hPa | 0 mm | - | 0 W/m² | - |
| 1787375120 | 20.56° C | 91% | 1015.7 hPa | 0 mm | - | 0 W/m² | - |
| 1787374520 | 20.56° C | 90% | 1015.9 hPa | 0 mm | - | 0 W/m² | - |
| 1787373918 | 20.56° C | 89% | 1015.9 hPa | 0 mm | - | 0 W/m² | - |
| 1787373321 | 21.11° C | 88% | 1015.8 hPa | 0 mm | - | 0 W/m² | - |
| 1787372721 | 21.11° C | 88% | 1015.9 hPa | 0 mm | - | 0 W/m² | - |
| 1787372119 | 21.67° C | 87% | 1015.9 hPa | 0 mm | - | 0 W/m² | - |
| 1787371520 | 21.11° C | 87% | 1015.8 hPa | 0 mm | - | 0 W/m² | - |
| 1787370918 | 21.11° C | 89% | 1015.8 hPa | 0 mm | - | 0 W/m² | - |
| 1787370319 | 20.56° C | 90% | 1015.9 hPa | 0 mm | - | 0 W/m² | - |
| 1787369719 | 20.56° C | 92% | 1015.9 hPa | 0 mm | - | 0 W/m² | - |
| 1787369119 | 20.56° C | 92% | 1016 hPa | 0 mm | - | 0 W/m² | - |
| 1787368521 | 20° C | 92% | 1016 hPa | 0 mm | - | 0 W/m² | - |
| 1787367919 | 20° C | 92% | 1016 hPa | 0 mm | - | 0 W/m² | - |
| 1787367319 | 20.56° C | 91% | 1016 hPa | 0 mm | - | 0 W/m² | - |
| 1787366720 | 20.56° C | 91% | 1015.9 hPa | 0 mm | - | 0 W/m² | - |
| 1787366122 | 20.56° C | 91% | 1015.8 hPa | 0 mm | - | 0 W/m² | - |
| 1787365520 | 20.56° C | 91% | 1015.7 hPa | 0 mm | - | 0 W/m² | - |
| 1787364921 | 20.56° C | 91% | 1015.7 hPa | 0 mm | - | 0 W/m² | - |
| 1787364317 | 20.56° C | 90% | 1015.7 hPa | 0 mm | - | 0 W/m² | - |
| 1787363718 | 21.11° C | 90% | 1015.8 hPa | 0 mm | - | 0 W/m² | - |
| 1787363121 | 21.11° C | 89% | 1015.8 hPa | 0 mm | - | 0 W/m² | - |
| 1787362521 | 21.11° C | 88% | 1015.7 hPa | 0 mm | - | 0 W/m² | - |
| 1787361921 | 21.67° C | 87% | 1015.6 hPa | 0 mm | - | 0 W/m² | - |
| 1787361318 | 22.22° C | 86% | 1015.5 hPa | 0 mm | - | 0 W/m² | - |
* Rain latest hour (hover to see other rain measurements)
** Current wind speed in m/s (hover to see current wind gust speed)